Regional Weather Roundup
Issued by NWS

Home | Current Version | Previous Version | Graphics & Text | Print | Product List | Glossary On
Versions: 1 2 3 4 5 6 7 8 9 10 11 12 13 14 15 16 17 18 19 20 21 22 23 24 25 26 27 28 29 30 31 32 33 34 35 36 37 38 39 40 41 42 43 44 45 46 47 48 49 50
000
ASUS45 KSLC 231910
RWRUT

UTAH REGIONAL WEATHER ROUNDUP
NATIONAL WEATHER SERVICE SALT LAKE CITY UT
100 PM MDT SAT MAY 23 2015

UTZ001>011-023>025-232000-

NORTHERN UTAH

CITY           SKY/WX    TMP DP  RH WIND       PRES   REMARKS
BRIGHAM CITY   PTSUNNY   54  45  72 CALM      29.96F
HILL AFB       CLOUDY    55  43  62 VRB5      29.95S
LOGAN          PTSUNNY   55  46  71 N8        29.95F
OGDEN          CLOUDY    52  47  83 W5        29.95R
PROVO AIRPORT  PTSUNNY   57  39  51 W9        29.93F
SALT LAKE CITY CLOUDY    56  46  69 NW7       29.94S
VERNAL         PTSUNNY   58  36  43 SW12G18   29.97F
WENDOVER       CLOUDY    52  52 100 E14       29.94S
HEBER CITY     CLOUDY    52  36  54 SE10      29.94R
WEST JORDAN    SUNNY     55  46  71 NW7       29.94F

$$

UTZ012>022-026-027-232000-

SOUTHERN/CENTRAL UTAH

CITY           SKY/WX    TMP DP  RH WIND       PRES   REMARKS
BLANDING       CLOUDY    46  39  75 SW15G21   30.10R
BRYCE CANYON   CLOUDY    43  37  79 VRB3      30.02R
CEDAR CITY     CLOUDY    50  42  74 SW14      29.99S
DELTA          CLOUDY    52  40  62 SW3       29.97R
HANKSVILLE     CLOUDY    55  37  50 S13G18    29.99F
MILFORD        LGT RAIN  51  46  83 S9        29.96S
MOAB/CYNLANDS  PTSUNNY   55  35  47 S21G26    29.95R
PRICE          RAIN      50  38  63 NE7       29.97F
ST GEORGE      MOCLDY    63  43  48 N7        29.99F
KANAB          CLOUDY    46  46 100 S3        30.07S

$$

REGIONAL REPORTS     COLORADO/ARIZONA

CITY           SKY/WX    TMP DP  RH WIND       PRES   REMARKS
CRAIG, CO      PTSUNNY   54  38  54 W17G25    29.96F
GRAND JUNCTION PTSUNNY   61  25  25 CALM      29.92F
RIFLE          PTSUNNY   58  37  45 NE9       29.94F
MONTROSE       TSTM      50  33  52 SW20G28   30.00R
CORTEZ         MOSUNNY   59  31  34 S13G21    30.02F
PAGE, AZ       LGT RAIN  54  45  71 VRB6      30.01S
GRAND CANYON   LGT RAIN  46  39  76 NW8       30.07S
KINGMAN        MOSUNNY   68  37  32 SW12G24   30.01S
FLAGSTAFF      CLOUDY    51  32  48 W10G18    30.10F

$$

REGIONAL REPORTS    NEVADA/IDAHO/WYOMING

CITY           SKY/WX    TMP DP  RH WIND       PRES   REMARKS
LAS VEGAS, NV  MOSUNNY   75  40  28 SE9       29.88F
ELY            LGT RAIN  50  43  77 N9        30.00S
ELKO           CLOUDY    55  47  74 SW9       29.96F
POCATELLO, ID  LGT RAIN  52  50  93 SE16      29.93R
BURLEY         CLOUDY    59  51  75 VRB3      29.91F
EVANSTON, WY   CLOUDY    53  39  59 VRB7      29.96F
ROCK SPRINGS   PTSUNNY   55  40  56 W9        29.95F THUNDER
KEMMERER       PTSUNNY   50  37  62 NW6       29.99F

$$



USA.gov is the U.S. government's official web portal to all federal, state and local government web resources and services.